TimeEST,TemperatureF,Dew PointF,Humidity,Sea Level PressureIn,VisibilityMPH,Wind Direction,Wind SpeedMPH,Gust SpeedMPH,PrecipitationIn,Events,Conditions,WindDirDegrees,DateUTC
12:15 AM,32.0,12.2,44,30.45,10.0,North,8.1,-,N/A,,Clear,350,2013-12-25 05:15:00
12:35 AM,30.2,12.2,47,30.45,10.0,NNW,8.1,-,N/A,,Clear,330,2013-12-25 05:35:00
12:55 AM,30.2,14.0,51,30.45,10.0,NNW,5.8,-,N/A,,Clear,330,2013-12-25 05:55:00
1:15 AM,30.2,12.2,47,30.45,10.0,NNW,4.6,-,N/A,,Clear,340,2013-12-25 06:15:00
1:35 AM,30.2,15.8,55,30.47,10.0,NW,3.5,-,N/A,,Clear,320,2013-12-25 06:35:00
1:55 AM,30.2,12.2,47,30.48,10.0,NNW,5.8,-,N/A,,Clear,340,2013-12-25 06:55:00
2:15 AM,30.2,12.2,47,30.48,10.0,North,6.9,-,N/A,,Clear,350,2013-12-25 07:15:00
2:35 AM,28.4,12.2,51,30.48,10.0,North,4.6,-,N/A,,Clear,350,2013-12-25 07:35:00
2:55 AM,28.4,14.0,55,30.48,10.0,North,5.8,-,N/A,,Clear,350,2013-12-25 07:55:00
3:15 AM,28.4,14.0,55,30.49,10.0,North,6.9,-,N/A,,Clear,10,2013-12-25 08:15:00
3:35 AM,28.4,15.8,59,30.48,10.0,North,6.9,-,N/A,,Clear,350,2013-12-25 08:35:00
3:55 AM,28.4,14.0,55,30.48,10.0,North,6.9,-,N/A,,Clear,360,2013-12-25 08:55:00
4:15 AM,28.4,14.0,55,30.49,10.0,North,5.8,-,N/A,,Clear,360,2013-12-25 09:15:00
4:35 AM,26.6,15.8,64,30.49,10.0,NW,4.6,-,N/A,,Clear,320,2013-12-25 09:35:00
4:55 AM,26.6,15.8,64,30.50,10.0,NNW,4.6,-,N/A,,Clear,330,2013-12-25 09:55:00
5:15 AM,26.6,15.8,64,30.50,10.0,NNW,3.5,-,N/A,,Clear,330,2013-12-25 10:15:00
5:35 AM,26.6,15.8,64,30.50,10.0,North,4.6,-,N/A,,Clear,360,2013-12-25 10:35:00
5:55 AM,26.6,17.6,69,30.51,10.0,NW,3.5,-,N/A,,Clear,320,2013-12-25 10:55:00
6:15 AM,26.6,15.8,64,30.52,10.0,NNW,4.6,-,N/A,,Clear,330,2013-12-25 11:15:00
6:35 AM,26.6,15.8,64,30.52,10.0,NNW,4.6,-,N/A,,Clear,340,2013-12-25 11:35:00
6:55 AM,26.6,15.8,64,30.53,10.0,NNW,3.5,-,N/A,,Clear,330,2013-12-25 11:55:00
7:15 AM,24.8,17.6,74,30.53,10.0,Calm,Calm,-,N/A,,Clear,0,2013-12-25 12:15:00
7:35 AM,24.8,17.6,74,30.54,10.0,Calm,Calm,-,N/A,,Clear,0,2013-12-25 12:35:00
7:55 AM,26.6,17.6,69,30.54,10.0,NW,4.6,-,N/A,,Clear,320,2013-12-25 12:55:00
8:15 AM,26.6,17.6,69,30.54,10.0,NNW,3.5,-,N/A,,Clear,340,2013-12-25 13:15:00
8:35 AM,26.6,17.6,69,30.54,10.0,NNW,5.8,-,N/A,,Clear,340,2013-12-25 13:35:00
8:55 AM,28.4,17.6,64,30.54,10.0,North,8.1,-,N/A,,Clear,360,2013-12-25 13:55:00
9:15 AM,28.4,17.6,64,30.55,10.0,NNE,5.8,-,N/A,,Clear,20,2013-12-25 14:15:00
9:35 AM,30.2,17.6,60,30.56,10.0,North,6.9,-,N/A,,Clear,350,2013-12-25 14:35:00
9:55 AM,30.2,17.6,60,30.56,10.0,North,5.8,-,N/A,,Clear,360,2013-12-25 14:55:00
10:15 AM,32.0,19.4,60,30.57,10.0,NE,8.1,-,N/A,,Clear,50,2013-12-25 15:15:00
10:35 AM,32.0,21.2,64,30.56,10.0,NNE,8.1,-,N/A,,Clear,30,2013-12-25 15:35:00
10:55 AM,32.0,21.2,64,30.57,10.0,NE,4.6,-,N/A,,Clear,40,2013-12-25 15:55:00
11:15 AM,33.8,21.2,60,30.56,10.0,NE,6.9,-,N/A,,Clear,40,2013-12-25 16:15:00
11:35 AM,33.8,21.2,60,30.55,10.0,Calm,Calm,-,N/A,,Clear,0,2013-12-25 16:35:00
11:55 AM,33.8,21.2,60,30.55,10.0,North,5.8,-,N/A,,Clear,360,2013-12-25 16:55:00
12:15 PM,33.8,23.0,65,30.54,10.0,North,5.8,-,N/A,,Clear,10,2013-12-25 17:15:00
12:35 PM,33.8,23.0,65,30.53,10.0,North,5.8,-,N/A,,Clear,10,2013-12-25 17:35:00
12:55 PM,35.6,21.2,56,30.52,10.0,Calm,Calm,-,N/A,,Clear,0,2013-12-25 17:55:00
1:15 PM,35.6,23.0,60,30.51,10.0,NE,3.5,-,N/A,,Clear,40,2013-12-25 18:15:00
1:35 PM,35.6,23.0,60,30.50,10.0,Calm,Calm,-,N/A,,Clear,0,2013-12-25 18:35:00
1:55 PM,35.6,24.8,65,30.50,10.0,Calm,Calm,-,N/A,,Clear,0,2013-12-25 18:55:00
2:15 PM,37.4,24.8,60,30.49,10.0,NE,6.9,-,N/A,,Clear,50,2013-12-25 19:15:00
2:35 PM,37.4,23.0,56,30.49,10.0,Calm,Calm,-,N/A,,Clear,0,2013-12-25 19:35:00
2:55 PM,37.4,23.0,56,30.50,10.0,NNE,3.5,-,N/A,,Clear,30,2013-12-25 19:55:00
3:15 PM,37.4,23.0,56,30.50,10.0,Calm,Calm,-,N/A,,Clear,0,2013-12-25 20:15:00
3:35 PM,37.4,24.8,60,30.50,10.0,Calm,Calm,-,N/A,,Clear,0,2013-12-25 20:35:00
3:55 PM,37.4,23.0,56,30.49,10.0,Calm,Calm,-,N/A,,Clear,0,2013-12-25 20:55:00
4:15 PM,37.4,24.8,60,30.50,10.0,Calm,Calm,-,N/A,,Clear,0,2013-12-25 21:15:00
4:35 PM,35.6,24.8,65,30.50,10.0,NE,3.5,-,N/A,,Clear,40,2013-12-25 21:35:00
4:55 PM,35.6,24.8,65,30.50,10.0,North,3.5,-,N/A,,Clear,360,2013-12-25 21:55:00
5:15 PM,33.8,24.8,70,30.49,10.0,North,3.5,-,N/A,,Clear,360,2013-12-25 22:15:00
5:35 PM,32.0,24.8,75,30.49,10.0,NNE,4.6,-,N/A,,Clear,30,2013-12-25 22:35:00
5:55 PM,32.0,23.0,69,30.49,10.0,NNE,5.8,-,N/A,,Clear,20,2013-12-25 22:55:00
6:15 PM,30.2,23.0,75,30.49,10.0,NNE,3.5,-,N/A,,Clear,20,2013-12-25 23:15:00
6:35 PM,30.2,23.0,75,30.50,10.0,NNE,3.5,-,N/A,,Clear,20,2013-12-25 23:35:00
6:55 PM,28.4,24.8,86,30.49,10.0,Calm,Calm,-,N/A,,Clear,0,2013-12-25 23:55:00
7:15 PM,28.4,24.8,86,30.49,10.0,Calm,Calm,-,N/A,,Clear,0,2013-12-26 00:15:00
7:35 PM,28.4,24.8,86,30.48,10.0,Calm,Calm,-,N/A,,Clear,0,2013-12-26 00:35:00
7:55 PM,28.4,24.8,86,30.48,10.0,Calm,Calm,-,N/A,,Clear,0,2013-12-26 00:55:00
8:15 PM,28.4,24.8,86,30.47,10.0,Calm,Calm,-,N/A,,Clear,0,2013-12-26 01:15:00
8:35 PM,28.4,24.8,86,30.47,10.0,Calm,Calm,-,N/A,,Clear,0,2013-12-26 01:35:00
8:55 PM,26.6,24.8,93,30.47,10.0,Calm,Calm,-,N/A,,Clear,0,2013-12-26 01:55:00
9:15 PM,28.4,24.8,86,30.46,10.0,Calm,Calm,-,N/A,,Clear,0,2013-12-26 02:15:00
9:35 PM,26.6,24.8,93,30.45,10.0,Calm,Calm,-,N/A,,Clear,0,2013-12-26 02:35:00
9:55 PM,26.6,24.8,93,30.45,10.0,Calm,Calm,-,N/A,,Clear,0,2013-12-26 02:55:00
10:15 PM,26.6,24.8,93,30.44,10.0,Calm,Calm,-,N/A,,Clear,0,2013-12-26 03:15:00
10:35 PM,26.6,24.8,93,30.43,10.0,Calm,Calm,-,N/A,,Clear,0,2013-12-26 03:35:00
10:55 PM,26.6,24.8,93,30.43,10.0,Calm,Calm,-,N/A,,Clear,0,2013-12-26 03:55:00
11:15 PM,26.6,24.8,93,30.43,10.0,Calm,Calm,-,N/A,,Clear,0,2013-12-26 04:15:00
11:35 PM,26.6,24.8,93,30.42,10.0,Calm,Calm,-,N/A,,Clear,0,2013-12-26 04:35:00
11:55 PM,26.6,24.8,93,30.41,10.0,Calm,Calm,-,N/A,,Clear,0,2013-12-26 04:55:00